Year,Month,Day,Hour,Minute,Value (Times are PST for temperature in C)
2018,05,05,00,00,10.30
2018,05,05,00,01,10.30
2018,05,05,00,02,10.30
2018,05,05,00,03,10.20
2018,05,05,00,04,10.20
2018,05,05,00,05,10.20
2018,05,05,00,06,10.10
2018,05,05,00,07,10.10
2018,05,05,00,08,10.10
2018,05,05,00,09,10.10
2018,05,05,00,10,10.10
2018,05,05,00,11,10.10
2018,05,05,00,12,10.10
2018,05,05,00,13,10.10
2018,05,05,00,14,10.10
2018,05,05,00,15,10.10
2018,05,05,00,16,10.00
2018,05,05,00,17,9.90
2018,05,05,00,18,9.90
2018,05,05,00,19,9.90
2018,05,05,00,20,9.90
2018,05,05,00,21,9.80
2018,05,05,00,22,9.80
2018,05,05,00,23,9.80
2018,05,05,00,24,9.80
2018,05,05,00,25,9.70
2018,05,05,00,26,9.70
2018,05,05,00,27,9.70
2018,05,05,00,28,9.70
2018,05,05,00,29,9.70
2018,05,05,00,30,9.70
2018,05,05,00,31,9.70
2018,05,05,00,32,9.70
2018,05,05,00,33,9.70
2018,05,05,00,34,9.70
2018,05,05,00,35,9.70
2018,05,05,00,36,9.70
2018,05,05,00,37,9.70
2018,05,05,00,38,9.60
2018,05,05,00,39,9.60
2018,05,05,00,40,9.60
2018,05,05,00,41,9.60
2018,05,05,00,42,9.60
2018,05,05,00,43,9.50
2018,05,05,00,44,9.50
2018,05,05,00,45,9.50
2018,05,05,00,46,9.50
2018,05,05,00,47,9.50
2018,05,05,00,48,9.50
2018,05,05,00,49,9.50
2018,05,05,00,50,9.50
2018,05,05,00,51,9.50
2018,05,05,00,52,9.50
2018,05,05,00,53,9.50
2018,05,05,00,54,9.40
2018,05,05,00,55,9.40
2018,05,05,00,56,9.40
2018,05,05,00,57,9.40
2018,05,05,00,58,9.40
2018,05,05,00,59,9.40
2018,05,05,01,00,9.30
2018,05,05,01,01,9.30
2018,05,05,01,02,9.30
2018,05,05,01,03,9.30
2018,05,05,01,04,9.30
2018,05,05,01,05,9.30
2018,05,05,01,06,9.20
2018,05,05,01,07,9.20
2018,05,05,01,08,9.20
2018,05,05,01,09,9.30
2018,05,05,01,10,9.40
2018,05,05,01,11,9.50
2018,05,05,01,12,9.50
2018,05,05,01,13,9.50
2018,05,05,01,14,9.60
2018,05,05,01,15,9.70
2018,05,05,01,16,9.70
2018,05,05,01,17,9.70
2018,05,05,01,18,9.70
2018,05,05,01,19,9.70
2018,05,05,01,20,9.60
2018,05,05,01,21,9.60
2018,05,05,01,22,9.50
2018,05,05,01,23,9.50
2018,05,05,01,24,9.50
2018,05,05,01,25,9.40
2018,05,05,01,26,9.40
2018,05,05,01,27,9.40
2018,05,05,01,28,9.30
2018,05,05,01,29,9.30
2018,05,05,01,30,9.30
2018,05,05,01,31,9.20
2018,05,05,01,32,9.20
2018,05,05,01,33,9.20
2018,05,05,01,34,9.20
2018,05,05,01,35,9.10
2018,05,05,01,36,9.10
2018,05,05,01,37,9.10
2018,05,05,01,38,9.10
2018,05,05,01,39,9.10
2018,05,05,01,40,9.10
2018,05,05,01,41,9.10
2018,05,05,01,42,9.10
2018,05,05,01,43,9.10
2018,05,05,01,44,9.20
2018,05,05,01,45,9.20
2018,05,05,01,46,9.20
2018,05,05,01,47,9.20
2018,05,05,01,48,9.20
2018,05,05,01,49,9.20
2018,05,05,01,50,9.20
2018,05,05,01,51,9.20
2018,05,05,01,52,9.10
2018,05,05,01,53,9.10
2018,05,05,01,54,9.10
2018,05,05,01,55,9.10
2018,05,05,01,56,9.10
2018,05,05,01,57,9.10
2018,05,05,01,58,9.10
2018,05,05,01,59,9.20
2018,05,05,02,00,9.20
2018,05,05,02,01,9.20
2018,05,05,02,02,9.20
2018,05,05,02,03,9.20
2018,05,05,02,04,9.20
2018,05,05,02,05,9.20
2018,05,05,02,06,9.20
2018,05,05,02,07,9.20
2018,05,05,02,08,9.20
2018,05,05,02,09,9.20
2018,05,05,02,10,9.20
2018,05,05,02,11,9.20
2018,05,05,02,12,9.20
2018,05,05,02,13,9.20
2018,05,05,02,14,9.20
2018,05,05,02,15,9.20
2018,05,05,02,16,9.20
2018,05,05,02,17,9.10
2018,05,05,02,18,9.10
2018,05,05,02,19,9.10
2018,05,05,02,20,9.10
2018,05,05,02,21,9.10
2018,05,05,02,22,9.10
2018,05,05,02,23,9.10
2018,05,05,02,24,9.10
2018,05,05,02,25,9.10
2018,05,05,02,26,9.10
2018,05,05,02,27,9.10
2018,05,05,02,28,9.10
2018,05,05,02,29,9.10
2018,05,05,02,30,9.10
2018,05,05,02,31,9.10
2018,05,05,02,32,9.10
2018,05,05,02,33,9.10
2018,05,05,02,34,9.10
2018,05,05,02,35,9.10
2018,05,05,02,36,9.10
2018,05,05,02,37,9.00
2018,05,05,02,38,9.00
2018,05,05,02,39,9.00
2018,05,05,02,40,9.00
2018,05,05,02,41,9.00
2018,05,05,02,42,9.00
2018,05,05,02,43,9.00
2018,05,05,02,44,9.00
2018,05,05,02,45,9.00
2018,05,05,02,46,9.00
2018,05,05,02,47,9.00
2018,05,05,02,48,9.00
2018,05,05,02,49,9.00
2018,05,05,02,50,9.00
2018,05,05,02,51,8.90
2018,05,05,02,52,8.90
2018,05,05,02,53,8.90
2018,05,05,02,54,8.90
2018,05,05,02,55,8.90
2018,05,05,02,56,8.90
2018,05,05,02,57,8.90
2018,05,05,02,58,8.90
2018,05,05,02,59,8.90
2018,05,05,03,00,8.90
2018,05,05,03,01,8.90
2018,05,05,03,02,8.90
2018,05,05,03,03,8.90
2018,05,05,03,04,8.90
2018,05,05,03,05,8.90
2018,05,05,03,06,8.90
2018,05,05,03,07,8.90
2018,05,05,03,08,8.90
2018,05,05,03,09,9.00
2018,05,05,03,10,9.00
2018,05,05,03,11,9.00
2018,05,05,03,12,8.90
2018,05,05,03,13,9.00
2018,05,05,03,14,9.00
2018,05,05,03,15,9.00
2018,05,05,03,16,9.00
2018,05,05,03,17,9.00
2018,05,05,03,18,9.00
2018,05,05,03,19,9.00
2018,05,05,03,20,9.00
2018,05,05,03,21,9.00
2018,05,05,03,22,9.00
2018,05,05,03,23,9.00
2018,05,05,03,24,9.00
2018,05,05,03,25,8.90
2018,05,05,03,26,8.90
2018,05,05,03,27,8.90
2018,05,05,03,28,8.90
2018,05,05,03,29,8.90
2018,05,05,03,30,8.80
2018,05,05,03,31,8.80
2018,05,05,03,32,8.80
2018,05,05,03,33,8.80
2018,05,05,03,34,8.80
2018,05,05,03,35,8.80
2018,05,05,03,36,8.70
2018,05,05,03,37,8.70
2018,05,05,03,38,8.70
2018,05,05,03,39,8.70
2018,05,05,03,40,8.70
2018,05,05,03,41,8.70
2018,05,05,03,42,8.60
2018,05,05,03,43,8.60
2018,05,05,03,44,8.60
2018,05,05,03,45,8.60
2018,05,05,03,46,8.50
2018,05,05,03,47,8.50
2018,05,05,03,48,8.50
2018,05,05,03,49,8.60
2018,05,05,03,50,8.60
2018,05,05,03,51,8.60
2018,05,05,03,52,8.60
2018,05,05,03,53,8.60
2018,05,05,03,54,8.60
2018,05,05,03,55,8.60
2018,05,05,03,56,8.60
2018,05,05,03,57,8.60
2018,05,05,03,58,8.60
2018,05,05,03,59,8.60
2018,05,05,04,00,8.60
2018,05,05,04,01,8.50
2018,05,05,04,02,8.50
2018,05,05,04,03,8.50
2018,05,05,04,04,8.40
2018,05,05,04,05,8.40
2018,05,05,04,06,8.40
2018,05,05,04,07,8.30
2018,05,05,04,08,8.30
2018,05,05,04,09,8.30
2018,05,05,04,10,8.30
2018,05,05,04,11,8.30
2018,05,05,04,12,8.20
2018,05,05,04,13,8.20
2018,05,05,04,14,8.20
2018,05,05,04,15,8.20
2018,05,05,04,16,8.20
2018,05,05,04,17,8.20
2018,05,05,04,18,8.20
2018,05,05,04,19,8.20
2018,05,05,04,20,8.20
2018,05,05,04,21,8.20
2018,05,05,04,22,8.20
2018,05,05,04,23,8.20
2018,05,05,04,24,8.20
2018,05,05,04,25,8.20
2018,05,05,04,26,8.20
2018,05,05,04,27,8.20
2018,05,05,04,28,8.20
2018,05,05,04,29,8.20
2018,05,05,04,30,8.20
2018,05,05,04,31,8.20
2018,05,05,04,32,8.20
2018,05,05,04,33,8.20
2018,05,05,04,34,8.20
2018,05,05,04,35,8.20
2018,05,05,04,36,8.20
2018,05,05,04,37,8.20
2018,05,05,04,38,8.20
2018,05,05,04,39,8.20
2018,05,05,04,40,8.20
2018,05,05,04,41,8.20
2018,05,05,04,42,8.20
2018,05,05,04,43,8.10
2018,05,05,04,44,8.10
2018,05,05,04,45,8.10
2018,05,05,04,46,8.10
2018,05,05,04,47,8.10
2018,05,05,04,48,8.10
2018,05,05,04,49,8.10
2018,05,05,04,50,8.10
2018,05,05,04,51,8.10
2018,05,05,04,52,8.10
2018,05,05,04,53,8.10
2018,05,05,04,54,8.10
2018,05,05,04,55,8.10
2018,05,05,04,56,8.20
2018,05,05,04,57,8.20
2018,05,05,04,58,8.20
2018,05,05,04,59,8.20
2018,05,05,05,00,8.20
2018,05,05,05,01,8.20
2018,05,05,05,02,8.20
2018,05,05,05,03,8.20
2018,05,05,05,04,8.20
2018,05,05,05,05,8.20
2018,05,05,05,06,8.20
2018,05,05,05,07,8.20
2018,05,05,05,08,8.20
2018,05,05,05,09,8.10
2018,05,05,05,10,8.10
2018,05,05,05,11,8.10
2018,05,05,05,12,8.10
2018,05,05,05,13,8.10
2018,05,05,05,14,8.10
2018,05,05,05,15,8.10
2018,05,05,05,16,8.00
2018,05,05,05,17,8.00
2018,05,05,05,18,8.00
2018,05,05,05,19,8.00
2018,05,05,05,20,8.00
2018,05,05,05,21,8.00
2018,05,05,05,22,8.00
2018,05,05,05,23,8.00
2018,05,05,05,24,8.00
2018,05,05,05,25,8.00
2018,05,05,05,26,8.10
2018,05,05,05,27,8.10
2018,05,05,05,28,8.10
2018,05,05,05,29,8.20
2018,05,05,05,30,8.20
2018,05,05,05,31,8.20
2018,05,05,05,32,8.20
2018,05,05,05,33,8.20
2018,05,05,05,34,8.20
2018,05,05,05,35,8.20
2018,05,05,05,36,8.20
2018,05,05,05,37,8.20
2018,05,05,05,38,8.30
2018,05,05,05,39,8.30
2018,05,05,05,40,8.30
2018,05,05,05,41,8.30
2018,05,05,05,42,8.40
2018,05,05,05,43,8.40
2018,05,05,05,44,8.40
2018,05,05,05,45,8.40
2018,05,05,05,46,8.50
2018,05,05,05,47,8.50
2018,05,05,05,48,8.50
2018,05,05,05,49,8.50
2018,05,05,05,50,8.50
2018,05,05,05,51,8.50
2018,05,05,05,52,8.50
2018,05,05,05,53,8.50
2018,05,05,05,54,8.50
2018,05,05,05,55,8.50
2018,05,05,05,56,8.50
2018,05,05,05,57,8.50
2018,05,05,05,58,8.50
2018,05,05,05,59,8.50
2018,05,05,06,00,8.50
2018,05,05,06,01,8.50
2018,05,05,06,02,8.50
2018,05,05,06,03,8.50
2018,05,05,06,04,8.50
2018,05,05,06,05,8.50
2018,05,05,06,06,8.50
2018,05,05,06,07,8.50
2018,05,05,06,08,8.50
2018,05,05,06,09,8.50
2018,05,05,06,10,8.50
2018,05,05,06,11,8.50
2018,05,05,06,12,8.50
2018,05,05,06,13,8.50
2018,05,05,06,14,8.60
2018,05,05,06,15,8.60
2018,05,05,06,16,8.60
2018,05,05,06,17,8.60
2018,05,05,06,18,8.60
2018,05,05,06,19,8.60
2018,05,05,06,20,8.60
2018,05,05,06,21,8.60
2018,05,05,06,22,8.60
2018,05,05,06,23,8.70
2018,05,05,06,24,8.70
2018,05,05,06,25,8.70
2018,05,05,06,26,8.70
2018,05,05,06,27,8.70
2018,05,05,06,28,8.80
2018,05,05,06,29,8.80
2018,05,05,06,30,8.90
2018,05,05,06,31,8.90
2018,05,05,06,32,8.90
2018,05,05,06,33,8.90
2018,05,05,06,34,9.00
2018,05,05,06,35,9.00
2018,05,05,06,36,9.00
2018,05,05,06,37,9.10
2018,05,05,06,38,9.10
2018,05,05,06,39,9.10
2018,05,05,06,40,9.10
2018,05,05,06,41,9.20
2018,05,05,06,42,9.20
2018,05,05,06,43,9.20
2018,05,05,06,44,9.20
2018,05,05,06,45,9.20
2018,05,05,06,46,9.20
2018,05,05,06,47,9.30
2018,05,05,06,48,9.30
2018,05,05,06,49,9.30
2018,05,05,06,50,9.30
2018,05,05,06,51,9.30
2018,05,05,06,52,9.30
2018,05,05,06,53,9.30
2018,05,05,06,54,9.40
2018,05,05,06,55,9.40
2018,05,05,06,56,9.40
2018,05,05,06,57,9.40
2018,05,05,06,58,9.40
2018,05,05,06,59,9.40
2018,05,05,07,00,9.50
2018,05,05,07,01,9.50
2018,05,05,07,02,9.50
2018,05,05,07,03,9.50
2018,05,05,07,04,9.50
2018,05,05,07,05,9.60
2018,05,05,07,06,9.60
2018,05,05,07,07,9.60
2018,05,05,07,08,9.70
2018,05,05,07,09,9.70
2018,05,05,07,10,9.70
2018,05,05,07,11,9.70
2018,05,05,07,12,9.70
2018,05,05,07,13,9.80
2018,05,05,07,14,9.80
2018,05,05,07,15,9.80
2018,05,05,07,16,9.80
2018,05,05,07,17,9.90
2018,05,05,07,18,9.90
2018,05,05,07,19,9.90
2018,05,05,07,20,9.90
2018,05,05,07,21,9.90
2018,05,05,07,22,10.00
2018,05,05,07,23,10.10
2018,05,05,07,24,10.10
2018,05,05,07,25,10.10
2018,05,05,07,26,10.20
2018,05,05,07,27,10.20
2018,05,05,07,28,10.20
2018,05,05,07,29,10.30
2018,05,05,07,30,10.30
2018,05,05,07,31,10.30
2018,05,05,07,32,10.40
2018,05,05,07,33,10.40
2018,05,05,07,34,10.40
2018,05,05,07,35,10.40
2018,05,05,07,36,10.50
2018,05,05,07,37,10.60
2018,05,05,07,38,10.60
2018,05,05,07,39,10.60
2018,05,05,07,40,10.70
2018,05,05,07,41,10.70
2018,05,05,07,42,10.80
2018,05,05,07,43,10.80
2018,05,05,07,44,10.90
2018,05,05,07,45,10.90
2018,05,05,07,46,10.90
2018,05,05,07,47,10.90
2018,05,05,07,48,11.00
2018,05,05,07,49,11.10
2018,05,05,07,50,11.10
2018,05,05,07,51,11.10
2018,05,05,07,52,11.20
2018,05,05,07,53,11.20
2018,05,05,07,54,11.30
2018,05,05,07,55,11.40
2018,05,05,07,56,11.40
2018,05,05,07,57,11.40
2018,05,05,07,58,11.50
2018,05,05,07,59,11.60
2018,05,05,08,00,11.70
2018,05,05,08,01,11.70
2018,05,05,08,02,11.80
2018,05,05,08,03,11.80
2018,05,05,08,04,11.90
2018,05,05,08,05,11.90
2018,05,05,08,06,12.00
2018,05,05,08,07,12.10
2018,05,05,08,08,12.20
2018,05,05,08,09,12.20
2018,05,05,08,10,12.30
2018,05,05,08,11,12.30
2018,05,05,08,12,12.30
2018,05,05,08,13,12.40
2018,05,05,08,14,12.50
2018,05,05,08,15,12.50
2018,05,05,08,16,12.50
2018,05,05,08,17,12.50
2018,05,05,08,18,12.60
2018,05,05,08,19,12.70
2018,05,05,08,20,12.70
2018,05,05,08,21,12.70
2018,05,05,08,22,12.60
2018,05,05,08,23,12.60
2018,05,05,08,24,12.70
2018,05,05,08,25,12.70
2018,05,05,08,26,12.80
2018,05,05,08,27,12.80
2018,05,05,08,28,12.80
2018,05,05,08,29,12.90
2018,05,05,08,30,12.90
2018,05,05,08,31,12.90
2018,05,05,08,32,12.90
2018,05,05,08,33,12.90
2018,05,05,08,34,13.00
2018,05,05,08,35,13.00
2018,05,05,08,36,13.10
2018,05,05,08,37,13.10
2018,05,05,08,38,13.20
2018,05,05,08,39,13.30
2018,05,05,08,40,13.30
2018,05,05,08,41,13.30
2018,05,05,08,42,13.30
2018,05,05,08,43,13.30
2018,05,05,08,44,13.30
2018,05,05,08,45,13.30
2018,05,05,08,46,13.20
2018,05,05,08,47,13.10
2018,05,05,08,48,13.10
2018,05,05,08,49,13.10
2018,05,05,08,50,13.10
2018,05,05,08,51,13.20
2018,05,05,08,52,13.20
2018,05,05,08,53,13.30
2018,05,05,08,54,13.30
2018,05,05,08,55,13.30
2018,05,05,08,56,13.30
2018,05,05,08,57,13.30
2018,05,05,08,58,13.30
2018,05,05,08,59,13.30
2018,05,05,09,00,13.30
2018,05,05,09,01,13.30
2018,05,05,09,02,13.40
2018,05,05,09,03,13.40
2018,05,05,09,04,13.40
2018,05,05,09,05,13.50
2018,05,05,09,06,13.50
2018,05,05,09,07,13.60
2018,05,05,09,08,13.60
2018,05,05,09,09,13.60
2018,05,05,09,10,13.60
2018,05,05,09,11,13.60
2018,05,05,09,12,13.50
2018,05,05,09,13,13.60
2018,05,05,09,14,13.60
2018,05,05,09,15,13.70
2018,05,05,09,16,13.70
2018,05,05,09,17,13.70
2018,05,05,09,18,13.70
2018,05,05,09,19,13.70
2018,05,05,09,20,13.80
2018,05,05,09,21,13.90
2018,05,05,09,22,14.00
2018,05,05,09,23,14.00
2018,05,05,09,24,14.10
2018,05,05,09,25,14.20
2018,05,05,09,26,14.40
2018,05,05,09,27,14.40
2018,05,05,09,28,14.50
2018,05,05,09,29,14.50
2018,05,05,09,30,14.60
2018,05,05,09,31,14.70
2018,05,05,09,32,14.60
2018,05,05,09,33,14.50
2018,05,05,09,34,14.30
2018,05,05,09,35,14.20
2018,05,05,09,36,14.10
2018,05,05,09,37,13.90
2018,05,05,09,38,13.80
2018,05,05,09,39,13.70
2018,05,05,09,40,13.40
2018,05,05,09,41,13.20
2018,05,05,09,42,13.10
2018,05,05,09,43,13.00
2018,05,05,09,44,12.90
2018,05,05,09,45,12.80
2018,05,05,09,46,12.80
2018,05,05,09,47,12.90
2018,05,05,09,48,13.00
2018,05,05,09,49,12.90
2018,05,05,09,50,12.90
2018,05,05,09,51,12.90
2018,05,05,09,52,12.90
2018,05,05,09,53,12.90
2018,05,05,09,54,12.80
2018,05,05,09,55,12.80
2018,05,05,09,56,12.80
2018,05,05,09,57,12.80
2018,05,05,09,58,12.80
2018,05,05,09,59,12.90
2018,05,05,10,00,12.90
2018,05,05,10,01,13.00
2018,05,05,10,02,13.00
2018,05,05,10,03,13.00
2018,05,05,10,04,12.80
2018,05,05,10,05,12.80
2018,05,05,10,06,12.80
2018,05,05,10,07,12.80
2018,05,05,10,08,12.80
2018,05,05,10,09,12.90
2018,05,05,10,10,12.90
2018,05,05,10,11,13.00
2018,05,05,10,12,13.00
2018,05,05,10,13,12.80
2018,05,05,10,14,12.70
2018,05,05,10,15,12.60
2018,05,05,10,16,12.60
2018,05,05,10,17,12.40
2018,05,05,10,18,12.40
2018,05,05,10,19,12.50
2018,05,05,10,20,12.50
2018,05,05,10,21,12.70
2018,05,05,10,22,12.80
2018,05,05,10,23,12.90
2018,05,05,10,24,12.90
2018,05,05,10,25,12.90
2018,05,05,10,26,12.90
2018,05,05,10,27,13.00
2018,05,05,10,28,13.00
2018,05,05,10,29,12.90
2018,05,05,10,30,12.90
2018,05,05,10,31,12.90
2018,05,05,10,32,13.00
2018,05,05,10,33,13.10
2018,05,05,10,34,13.10
2018,05,05,10,35,13.10
2018,05,05,10,36,13.10
2018,05,05,10,37,13.20
2018,05,05,10,38,13.30
2018,05,05,10,39,13.50
2018,05,05,10,40,13.60
2018,05,05,10,41,13.60
2018,05,05,10,42,13.70
2018,05,05,10,43,13.60
2018,05,05,10,44,13.50
2018,05,05,10,45,13.50
2018,05,05,10,46,13.40
2018,05,05,10,47,13.50
2018,05,05,10,48,13.50
2018,05,05,10,49,13.60
2018,05,05,10,50,13.60
2018,05,05,10,51,13.70
2018,05,05,10,52,13.80
2018,05,05,10,53,14.00
2018,05,05,10,54,14.00
2018,05,05,10,55,14.00
2018,05,05,10,56,13.90
2018,05,05,10,57,13.90
2018,05,05,10,58,14.00
2018,05,05,10,59,14.10
2018,05,05,11,00,14.20
2018,05,05,11,01,14.20
2018,05,05,11,02,14.20
2018,05,05,11,03,14.30
2018,05,05,11,04,14.30
2018,05,05,11,05,14.40
2018,05,05,11,06,14.40
2018,05,05,11,07,14.40
2018,05,05,11,08,14.50
2018,05,05,11,09,14.50
2018,05,05,11,10,14.50
2018,05,05,11,11,14.60
2018,05,05,11,12,14.70
2018,05,05,11,13,14.70
2018,05,05,11,14,14.70
2018,05,05,11,15,14.60
2018,05,05,11,16,14.60
2018,05,05,11,17,14.50
2018,05,05,11,18,14.50
2018,05,05,11,19,14.50
2018,05,05,11,20,14.60
2018,05,05,11,21,14.60
2018,05,05,11,22,14.60
2018,05,05,11,23,14.60
2018,05,05,11,24,14.60
2018,05,05,11,25,14.60
2018,05,05,11,26,14.60
2018,05,05,11,27,14.60
2018,05,05,11,28,14.60
2018,05,05,11,29,14.60
2018,05,05,11,30,14.50
2018,05,05,11,31,14.50
2018,05,05,11,32,14.50
2018,05,05,11,33,14.30
2018,05,05,11,34,14.20
2018,05,05,11,35,14.20
2018,05,05,11,36,14.10
2018,05,05,11,37,13.90
2018,05,05,11,38,13.80
2018,05,05,11,39,13.70
2018,05,05,11,40,13.60
2018,05,05,11,41,13.60
2018,05,05,11,42,13.60
2018,05,05,11,43,13.60
2018,05,05,11,44,13.70
2018,05,05,11,45,13.70
2018,05,05,11,46,13.80
2018,05,05,11,47,13.90
2018,05,05,11,48,14.10
2018,05,05,11,49,14.20
2018,05,05,11,50,14.30
2018,05,05,11,51,14.50
2018,05,05,11,52,14.60
2018,05,05,11,53,14.60
2018,05,05,11,54,14.50
2018,05,05,11,55,14.50
2018,05,05,11,56,14.40
2018,05,05,11,57,14.40
2018,05,05,11,58,14.40
2018,05,05,11,59,14.40
2018,05,05,12,00,14.50
2018,05,05,12,01,14.60
2018,05,05,12,02,14.80
2018,05,05,12,03,14.90
2018,05,05,12,04,14.90
2018,05,05,12,05,14.90
2018,05,05,12,06,14.90
2018,05,05,12,07,14.80
2018,05,05,12,08,14.70
2018,05,05,12,09,14.60
2018,05,05,12,10,14.60
2018,05,05,12,11,14.60
2018,05,05,12,12,14.60
2018,05,05,12,13,14.60
2018,05,05,12,14,14.60
2018,05,05,12,15,14.70
2018,05,05,12,16,14.70
2018,05,05,12,17,14.70
2018,05,05,12,18,14.70
2018,05,05,12,19,14.70
2018,05,05,12,20,14.70
2018,05,05,12,21,14.70
2018,05,05,12,22,14.70
2018,05,05,12,23,14.60
2018,05,05,12,24,14.70
2018,05,05,12,25,14.70
2018,05,05,12,26,14.80
2018,05,05,12,27,14.80
2018,05,05,12,28,14.90
2018,05,05,12,29,15.00
2018,05,05,12,30,15.10
2018,05,05,12,31,15.20
2018,05,05,12,32,15.40
2018,05,05,12,33,15.50
2018,05,05,12,34,15.70
2018,05,05,12,35,15.80
2018,05,05,12,36,15.90
2018,05,05,12,37,15.90
2018,05,05,12,38,15.80
2018,05,05,12,39,15.70
2018,05,05,12,40,15.60
2018,05,05,12,41,15.50
2018,05,05,12,42,15.40
2018,05,05,12,43,15.30
2018,05,05,12,44,15.30
2018,05,05,12,45,15.20
2018,05,05,12,46,15.20
2018,05,05,12,47,15.10
2018,05,05,12,48,15.10
2018,05,05,12,49,15.10
2018,05,05,12,50,15.00
2018,05,05,12,51,14.90
2018,05,05,12,52,14.90
2018,05,05,12,53,14.80
2018,05,05,12,54,14.80
2018,05,05,12,55,14.80
2018,05,05,12,56,14.80
2018,05,05,12,57,14.80
2018,05,05,12,58,15.00
2018,05,05,12,59,15.20
2018,05,05,13,00,15.40
2018,05,05,13,01,15.40
2018,05,05,13,02,15.40
2018,05,05,13,03,15.40
2018,05,05,13,04,15.50
2018,05,05,13,05,15.50
2018,05,05,13,06,15.60
2018,05,05,13,07,15.60
2018,05,05,13,08,15.70
2018,05,05,13,09,15.80
2018,05,05,13,10,15.80
2018,05,05,13,11,15.80
2018,05,05,13,12,15.80
2018,05,05,13,13,16.00
2018,05,05,13,14,16.20
2018,05,05,13,15,16.20
2018,05,05,13,16,16.20
2018,05,05,13,17,16.20
2018,05,05,13,18,16.10
2018,05,05,13,19,16.10
2018,05,05,13,20,16.20
2018,05,05,13,21,16.30
2018,05,05,13,22,16.30
2018,05,05,13,23,16.20
2018,05,05,13,24,16.20
2018,05,05,13,25,16.10
2018,05,05,13,26,16.20
2018,05,05,13,27,16.30
2018,05,05,13,28,16.40
2018,05,05,13,29,16.40
2018,05,05,13,30,16.50
2018,05,05,13,31,16.60
2018,05,05,13,32,16.70
2018,05,05,13,33,16.60
2018,05,05,13,34,16.60
2018,05,05,13,35,16.60
2018,05,05,13,36,16.70
2018,05,05,13,37,16.80
2018,05,05,13,38,16.80
2018,05,05,13,39,16.90
2018,05,05,13,40,16.90
2018,05,05,13,41,17.10
2018,05,05,13,42,17.20
2018,05,05,13,43,17.30
2018,05,05,13,44,17.30
2018,05,05,13,45,17.30
2018,05,05,13,46,17.30
2018,05,05,13,47,17.30
2018,05,05,13,48,17.20
2018,05,05,13,49,17.10
2018,05,05,13,50,17.10
2018,05,05,13,51,17.20
2018,05,05,13,52,17.20
2018,05,05,13,53,17.30
2018,05,05,13,54,17.40
2018,05,05,13,55,17.50
2018,05,05,13,56,17.50
2018,05,05,13,57,17.50
2018,05,05,13,58,17.50
2018,05,05,13,59,17.50
2018,05,05,14,00,17.40
2018,05,05,14,01,17.30
2018,05,05,14,02,17.20
2018,05,05,14,03,17.00
2018,05,05,14,04,16.90
2018,05,05,14,05,16.70
2018,05,05,14,06,16.50
2018,05,05,14,07,16.40
2018,05,05,14,08,16.40
2018,05,05,14,09,16.40
2018,05,05,14,10,16.60
2018,05,05,14,11,16.80
2018,05,05,14,12,17.10
2018,05,05,14,13,17.30
2018,05,05,14,14,17.50
2018,05,05,14,15,17.60
2018,05,05,14,16,17.60
2018,05,05,14,17,17.70
2018,05,05,14,18,17.70
2018,05,05,14,19,17.60
2018,05,05,14,20,17.60
2018,05,05,14,21,17.50
2018,05,05,14,22,17.40
2018,05,05,14,23,17.50
2018,05,05,14,24,17.60
2018,05,05,14,25,17.70
2018,05,05,14,26,17.70
2018,05,05,14,27,17.50
2018,05,05,14,28,17.40
2018,05,05,14,29,17.30
2018,05,05,14,30,17.30
2018,05,05,14,31,17.30
2018,05,05,14,32,17.30
2018,05,05,14,33,17.40
2018,05,05,14,34,17.40
2018,05,05,14,35,17.40
2018,05,05,14,36,17.30
2018,05,05,14,37,17.40
2018,05,05,14,38,17.40
2018,05,05,14,39,17.30
2018,05,05,14,40,17.30
2018,05,05,14,41,17.20
2018,05,05,14,42,17.20
2018,05,05,14,43,17.00
2018,05,05,14,44,17.00
2018,05,05,14,45,16.90
2018,05,05,14,46,16.90
2018,05,05,14,47,16.80
2018,05,05,14,48,16.70
2018,05,05,14,49,16.70
2018,05,05,14,50,16.60
2018,05,05,14,51,16.40
2018,05,05,14,52,16.40
2018,05,05,14,53,16.40
2018,05,05,14,54,16.40
2018,05,05,14,55,16.40
2018,05,05,14,56,16.40
2018,05,05,14,57,16.40
2018,05,05,14,58,16.40
2018,05,05,14,59,16.40
2018,05,05,15,00,16.40
2018,05,05,15,01,16.40
2018,05,05,15,02,16.30
2018,05,05,15,03,16.30
2018,05,05,15,04,16.30
2018,05,05,15,05,16.30
2018,05,05,15,06,16.40
2018,05,05,15,07,16.30
2018,05,05,15,08,16.30
2018,05,05,15,09,16.30
2018,05,05,15,10,16.40
2018,05,05,15,11,16.60
2018,05,05,15,12,16.70
2018,05,05,15,13,16.80
2018,05,05,15,14,17.00
2018,05,05,15,15,17.00
2018,05,05,15,16,17.00
2018,05,05,15,17,17.00
2018,05,05,15,18,16.90
2018,05,05,15,19,16.80
2018,05,05,15,20,16.80
2018,05,05,15,21,16.80
2018,05,05,15,22,16.70
2018,05,05,15,23,16.70
2018,05,05,15,24,16.70
2018,05,05,15,25,16.70
2018,05,05,15,26,16.70
2018,05,05,15,27,16.70
2018,05,05,15,28,16.70
2018,05,05,15,29,16.80
2018,05,05,15,30,16.80
2018,05,05,15,31,16.70
2018,05,05,15,32,16.80
2018,05,05,15,33,16.90
2018,05,05,15,34,16.90
2018,05,05,15,35,17.00
2018,05,05,15,36,17.00
2018,05,05,15,37,17.00
2018,05,05,15,38,16.90
2018,05,05,15,39,16.80
2018,05,05,15,40,16.70
2018,05,05,15,41,16.60
2018,05,05,15,42,16.50
2018,05,05,15,43,16.40
2018,05,05,15,44,16.40
2018,05,05,15,45,16.40
2018,05,05,15,46,16.30
2018,05,05,15,47,16.30
2018,05,05,15,48,16.30
2018,05,05,15,49,16.20
2018,05,05,15,50,16.30
2018,05,05,15,51,16.20
2018,05,05,15,52,16.20
2018,05,05,15,53,16.20
2018,05,05,15,54,16.20
2018,05,05,15,55,16.20
2018,05,05,15,56,16.20
2018,05,05,15,57,16.20
2018,05,05,15,58,16.30
2018,05,05,15,59,16.40
2018,05,05,16,00,16.40
2018,05,05,16,01,16.30
2018,05,05,16,02,16.40
2018,05,05,16,03,16.40
2018,05,05,16,04,16.50
2018,05,05,16,05,16.60
2018,05,05,16,06,16.60
2018,05,05,16,07,16.60
2018,05,05,16,08,16.70
2018,05,05,16,09,16.60
2018,05,05,16,10,16.60
2018,05,05,16,11,16.60
2018,05,05,16,12,16.60
2018,05,05,16,13,16.50
2018,05,05,16,14,16.60
2018,05,05,16,15,16.50
2018,05,05,16,16,16.40
2018,05,05,16,17,16.40
2018,05,05,16,18,16.40
2018,05,05,16,19,16.40
2018,05,05,16,20,16.30
2018,05,05,16,21,16.30
2018,05,05,16,22,16.30
2018,05,05,16,23,16.30
2018,05,05,16,24,16.20
2018,05,05,16,25,16.20
2018,05,05,16,26,16.30
2018,05,05,16,27,16.30
2018,05,05,16,28,16.40
2018,05,05,16,29,16.40
2018,05,05,16,30,16.40
2018,05,05,16,31,16.40
2018,05,05,16,32,16.40
2018,05,05,16,33,16.50
2018,05,05,16,34,16.60
2018,05,05,16,35,16.60
2018,05,05,16,36,16.60
2018,05,05,16,37,16.70
2018,05,05,16,38,16.70
2018,05,05,16,39,16.80
2018,05,05,16,40,16.90
2018,05,05,16,41,17.00
2018,05,05,16,42,17.10
2018,05,05,16,43,17.30
2018,05,05,16,44,17.30
2018,05,05,16,45,17.30
2018,05,05,16,46,17.40
2018,05,05,16,47,17.40
2018,05,05,16,48,17.30
2018,05,05,16,49,17.30
2018,05,05,16,50,17.20
2018,05,05,16,51,17.10
2018,05,05,16,52,17.10
2018,05,05,16,53,17.10
2018,05,05,16,54,17.10
2018,05,05,16,55,17.20
2018,05,05,16,56,17.30
2018,05,05,16,57,17.30
2018,05,05,16,58,17.30
2018,05,05,16,59,17.30
2018,05,05,17,00,17.30
2018,05,05,17,01,17.20
2018,05,05,17,02,17.00
2018,05,05,17,03,17.00
2018,05,05,17,04,16.90
2018,05,05,17,05,16.90
2018,05,05,17,06,16.80
2018,05,05,17,07,16.70
2018,05,05,17,08,16.70
2018,05,05,17,09,16.70
2018,05,05,17,10,16.70
2018,05,05,17,11,16.80
2018,05,05,17,12,16.80
2018,05,05,17,13,16.80
2018,05,05,17,14,16.80
2018,05,05,17,15,16.80
2018,05,05,17,16,16.80
2018,05,05,17,17,16.80
2018,05,05,17,18,16.80
2018,05,05,17,19,16.70
2018,05,05,17,20,16.80
2018,05,05,17,21,16.90
2018,05,05,17,22,17.00
2018,05,05,17,23,17.00
2018,05,05,17,24,16.90
2018,05,05,17,25,16.80
2018,05,05,17,26,16.80
2018,05,05,17,27,16.80
2018,05,05,17,28,16.90
2018,05,05,17,29,17.00
2018,05,05,17,30,17.10
2018,05,05,17,31,17.20
2018,05,05,17,32,17.20
2018,05,05,17,33,17.10
2018,05,05,17,34,17.10
2018,05,05,17,35,17.10
2018,05,05,17,36,17.10
2018,05,05,17,37,17.10